Regional Weather Roundup
Issued by NWS

Home | Current Version | Previous Version | Text Only | Print | Product List | Glossary On
Versions: 1 2 3 4 5 6 7 8 9 10 11 12 13 14 15 16 17 18 19 20 21 22 23 24 25 26 27 28 29 30 31 32 33 34 35 36 37 38 39 40 41 42 43 44 45 46 47 48 49 50
000
ASUS43 KLOT 020110
RWRIL

ILLINOIS REGIONAL WEATHER ROUNDUP
NATIONAL WEATHER SERVICE CHICAGO/ROMEOVILLE IL
800 PM CDT FRI AUG 01 2014

NOTE: "FAIR" INDICATES FEW OR NO CLOUDS BELOW 12,000 FEET WITH NO
SIGNIFICANT WEATHER AND/OR OBSTRUCTIONS TO VISIBILITY.

* THESE STATIONS ARE NOT UNDER NWS QUALITY CONTROL. THEY ALSO MAY NOT
  REPORT WEATHER SUCH AS PRECIPITATION OR FOG.

ILZ001-002-007-009-015-016-024-020200-
NORTHWEST ILLINOIS

CITY           SKY/WX    TMP DP  RH WIND       PRES   REMARKS
MOLINE         MOCLDY    72  67  84 W3        30.06S
STERLING*      MOCLDY    72  63  73 CALM      30.08R
SAVANNA*       CLEAR     78  59  51 CALM      30.07R
$$

ILZ003-004-008-010-011-017-018-020200-
NORTH CENTRAL ILLINOIS

CITY           SKY/WX    TMP DP  RH WIND       PRES   REMARKS
ROCKFORD       TSTM      64  57  78 NW20G29   30.13R VSB 1
FREEPORT*      PTCLDY    75  64  66 CALM      30.11R
ROCHELLE*      TSTM      66  58  76 E13       30.10R
DE KALB*       CLOUDY    64  58  82 S9        30.10S
PERU*          CLOUDY    70  61  72 S6        30.10S
$$

ILZ005-006-012>014-019>023-020200-
NORTHEAST ILLINOIS

CITY           SKY/WX    TMP DP  RH WIND       PRES   REMARKS
CHICAGO-OHARE  MOCLDY    72  57  59 SW9       30.09R
CHICAGO-MIDWAY CLOUDY    72  60  66 SW9       30.08R
AURORA         CLOUDY    68  61  78 SW5       30.10S
LANSING*       CLOUDY    70  58  66 SW6       30.09R
JOLIET*        CLOUDY    65  62  87 CALM      30.10F
WAUKEGAN       MOCLDY    70  59  68 NW10G17   30.09R
DUPAGE AIRPORT CLOUDY    70  59  68 S8        30.09S
KANKAKEE*      CLOUDY    66  63  87 CALM      30.08S
WHEELING       MOCLDY    74  58  57 S3        30.09R
MORRIS*        CLOUDY    67  64  90 CALM      30.09F
ROMEOVILLE*    CLOUDY    67  61  81 CALM      30.09F
NORTHERLY ISL    N/A     74  55  51 SW7         N/A
$$

LMZ740>746-020200-
SOUTHERN LAKE MICHIGAN

STATION/POSITION SKY/WX   TEMP    WIND        PRES    VSBY  WAVE
                          AIR SEA DIR/SP/G                  HT/PER
                          (F)     (DEG/KT/KT) (MB)    (MI)  (FT/S)
SOUTHERN BUOY              66 65  240/  4/ 12 1018.9R         0
WAUKEGAN HARBOR            70     180/  8/ 10   N/A
HARRISON CRIB              75     230/  8/ 11   N/A
BURNHAM HARBOR             73     260/  9       N/A
CALUMET HARBOR             73     250/  6/  9 1017.4S
MICHIGAN CITY              72     140/  3/  4   N/A
MICHIGAN CITY 6N           71 69  160/  6/  8   N/A           0
ST. JOSEPH                 70 70  210/  2/  2   N/A           1
$$

ILZ025>027-034>036-040-047-049-050-058-095>099-020200-
WEST-CENTRAL ILLINOIS

CITY           SKY/WX    TMP DP  RH WIND       PRES   REMARKS
QUINCY         PTCLDY    71  65  81 SW5       30.07R
GALESBURG*     MOCLDY    68  62  79 S8        30.10R
MACOMB*        CLOUDY    66  60  81 E13G22    30.12R
JACKSONVILLE*  MOCLDY    71  65  83 CALM      30.09R
PITTSFIELD*    MOCLDY    69  65  85 CALM      30.09R
$$

ILZ028>032-037-038-041>044-048-051>054-059>061-020200-
CENTRAL ILLINOIS

CITY           SKY/WX    TMP DP  RH WIND       PRES   REMARKS
PONTIAC        MOCLDY    66  64  94 E5        30.09S
DECATUR        MOCLDY    66  62  87 CALM      30.09F
PEORIA         CLOUDY    68  63  84 CALM      30.10R
LACON*         CLOUDY    68  61  77 CALM      30.09R
LINCOLN*       MOCLDY    68  62  80 CALM      30.05F
SPRINGFIELD    MOCLDY    70  63  78 SE5       30.08S
TAYLORVILLE    MOCLDY    64  61  88 SE6       30.07F
$$

ILZ033-039-045-046-055>057-062-063-020200-
EAST-CENTRAL ILLINOIS

CITY           SKY/WX    TMP DP  RH WIND       PRES   REMARKS
CHAMPAIGN      CLOUDY    68  63  84 W6        30.09F
DANVILLE*      HVY RAIN  67  64  89 N5        30.07S
RANTOUL*       CLOUDY    71  62  73 CALM      30.10S
MATTOON        LGT RAIN  65  64  97 S5        30.08F FOG
PARIS*         CLOUDY    68  64  86 W8        30.10R
$$

ILZ079-100>102-020200-
SOUTHWEST ILLINOIS

CITY           SKY/WX    TMP DP  RH WIND       PRES   REMARKS
ALTON          PTCLDY    70  68  94 E5        30.08S
BELLEVILLE     CLOUDY    68  65  90 N3        30.07S
CAHOKIA*       CLOUDY    70  67  90 S3        30.07S
SPARTA*        CLOUDY    66  64  94 E6        30.09R
$$

ILZ064>066-069>071-074>076-080>082-084>086-088>090-092>094-020200-
SOUTH-CENTRAL ILLINOIS

CITY           SKY/WX    TMP DP  RH WIND       PRES   REMARKS
CARBONDALE     MOCLDY    77  65  66 W5        30.04R
CAIRO*         PTCLDY    76  67  72 CALM      30.03S
EFFINGHAM*     RAIN      65  59  81 E3        30.08F
MARION         MOCLDY    77  66  69 SE5       30.04S THUNDER
MT. VERNON     CLOUDY    68  59  73 N9        30.07F
CENTRALIA*     CLOUDY    64  61  88 NE7       30.07F
SALEM*         CLOUDY    68  64  86 E7        30.08F
METROPOLIS*    CLEAR     76  63  65 CALM      30.03R
$$

ILZ067-068-072-073-078-083-087-091-020200-
SOUTHEAST ILLINOIS

CITY           SKY/WX    TMP DP  RH WIND       PRES   REMARKS
LAWRENCEVILLE  MOCLDY    72  64  76 NW15      30.07R
FLORA*         MOCLDY    66  62  87 NW3       30.10S
FAIRFIELD*     MOCLDY    70  64  83 N10       30.08R
HARRISBURG*    PTCLDY    76  65  69 CALM      30.06R
ROBINSON*      TSTM      69  65  86 N3        30.11R
CARMI*         PTCLDY    72  72 100 CALM      30.04S
$$

ABBREVIATIONS USED IN REMARKS
   TC - TEMPERATURE IN CELSIUS
  WCI - WIND CHILL INDEX
   HX - HEAT INDEX
  VSB - VISIBILITY
$$



USA.gov is the U.S. government's official web portal to all federal, state and local government web resources and services.